x

9411340 - Santa Barbara, Ca (ntbc1) Weather Station

8:36 - Thu 17th Aug 2017 All times are PDT. -7 hours from GMT.

  • Wind
    6mph, 7mph gusts
  • Ar Temp 64°f
  • Sea Pressure 1015.1mb
  • 9411340 - Santa Barbara, Ca
  • 9411340 - Santa Barbara, Ca

More Historic Weather Station data

Upgrade to MSW Pro to gain access to the past 30 days of data for over 8000 Wavebouys and Weather Stations around the globe.

Join

Comparision Forecast

View Surf forecast
   
Qui 08/17 8:36 6 7 mph 1015.1mb 64f
8:30 5 6 mph 1015mb 64f
8:24 3 7 mph 1015.1mb 64f
8:18 5 7 mph 1015mb 64f
8:12 5 8 mph 1015.1mb 64f
8:06 3 6 mph 1015.1mb 64f
8:00 2 6 mph 1015.1mb 65f
7:36 6 9 mph 1014.9mb 64f
7:30 6 11 mph 1014.9mb 64f
7:24 8 14 mph 1014.9mb 65f
7:18 8 14 mph 1014.8mb 65f
7:12 7 11 mph 1014.8mb 65f
7:06 7 13 mph 1014.7mb 65f
7:00 8 15 mph 1014.6mb 65f
5:36 11 16 mph 1014.7mb 67f
5:30 11 15 mph 1014.7mb 67f
5:24 9 14 mph 1014.7mb 67f
5:18 11 15 mph 1014.8mb 67f
5:12 11 14 mph 1014.8mb 67f
5:06 11 16 mph 1014.8mb 67f
5:00 13 16 mph 1014.9mb 66f
4:36 11 14 mph 1014.8mb 67f
4:30 11 16 mph 1014.9mb 67f
4:24 13 16 mph 1014.9mb 67f
4:18 11 16 mph 1014.9mb 68f
4:12 11 15 mph 1014.9mb 68f
4:06 9 14 mph 1015mb 68f
4:00 14 15 mph 1015.1mb 66f
3:36 13 15 mph 1015.4mb 67f
3:30 10 14 mph 1015.5mb 69f
3:24 10 15 mph 1015.5mb 68f
3:18 11 14 mph 1015.6mb 67f
3:12 11 15 mph 1015.7mb 67f
3:06 14 15 mph 1015.7mb 66f
3:00 13 15 mph 1015.7mb 66f
2:36 14 16 mph 1015.8mb 66f
2:30 14 16 mph 1015.9mb 66f
2:24 14 16 mph 1015.8mb 66f
2:18 14 15 mph 1016mb 66f
2:12 14 16 mph 1016mb 66f
2:06 14 17 mph 1016mb 65f
2:00 14 16 mph 1016mb 66f
1:36 14 15 mph 1016.2mb 65f
1:30 14 15 mph 1016.2mb 65f
1:24 13 14 mph 1016.2mb 65f
1:18 11 14 mph 1016.3mb 65f
1:12 11 15 mph 1016.5mb 65f
1:06 13 15 mph 1016.5mb 65f
1:00 13 14 mph 1016.7mb 65f
12:36 13 15 mph 1016.9mb 64f
12:30 13 15 mph 1016.9mb 64f
12:24 14 15 mph 1017mb 64f
12:18 14 15 mph 1017mb 64f
12:12 13 14 mph 1017mb 64f
12:06 13 15 mph 1017mb 64f
12:00 13 14 mph 1017.1mb 64f
11:36 13 14 mph 1017.1mb 64f
11:30 13 14 mph 1017.1mb 64f
11:24 13 14 mph 1017.1mb 64f
11:18 13 14 mph 1017.1mb 64f
11:12 11 13 mph 1017mb 64f
11:06 11 11 mph 1017.1mb 64f
11:00 10 11 mph 1017.2mb 64f
10:36 9 10 mph 1017.2mb 64f
10:30 9 10 mph 1017.2mb 64f
10:24 9 10 mph 1017.2mb 64f
10:18 8 9 mph 1017.2mb 64f
10:12 8 9 mph 1017.2mb 64f
10:06 7 8 mph 1017.2mb 64f
10:00 8 8 mph 1017.2mb 64f
9:36 3 6 mph 1017mb 65f
9:30 5 6 mph 1017mb 65f
9:24 3 5 mph 1016.9mb 65f
9:18 2 3 mph 1016.9mb 66f
9:12 2 5 mph 1016.8mb 66f
9:06 2 3 mph 1016.8mb 65f
9:00 2 5 mph 1016.8mb 67f
8:36 3 3 mph 1016.7mb 66f
8:30 2 3 mph 1016.7mb 66f
8:24 2 3 mph 1016.6mb 65f
8:18 2 5 mph 1016.5mb 65f
8:12 2 3 mph 1016.5mb 64f
8:06 3 5 mph 1016.5mb 64f
8:00 3 5 mph 1016.4mb 64f
7:36 3 6 mph 1016.4mb 63f
7:30 3 5 mph 1016.3mb 63f
7:24 3 6 mph 1016.2mb 63f
7:18 3 6 mph 1016.2mb 63f
7:12 5 6 mph 1016.1mb 63f
7:06 5 6 mph 1016.1mb 62f
7:00 6 7 mph 1016mb 62f
6:36 6 7 mph 1015.7mb 62f
6:30 6 7 mph 1015.6mb 62f
6:24 6 7 mph 1015.6mb 62f
6:18 5 6 mph 1015.5mb 62f
6:12 3 5 mph 1015.4mb 62f
6:06 3 5 mph 1015.3mb 62f
6:00 5 6 mph 1015.3mb 62f
5:36 5 5 mph 1015mb 62f
5:30 3 5 mph 1014.9mb 62f
5:24 3 3 mph 1014.8mb 62f
5:18 2 3 mph 1014.8mb 62f
5:12 2 3 mph 1014.7mb 62f
5:06 2 3 mph 1014.6mb 62f
5:00 3 5 mph 1014.6mb 62f
4:36 5 6 mph 1014.6mb 62f
4:30 3 5 mph 1014.6mb 63f
4:24 3 6 mph 1014.6mb 62f
4:18 5 6 mph 1014.6mb 62f
4:12 3 7 mph 1014.6mb 62f
4:06 5 6 mph 1014.6mb 62f
4:00 5 7 mph 1014.6mb 63f
3:36 6 7 mph 1014.6mb 63f
3:30 5 6 mph 1014.5mb 63f
3:24 5 6 mph 1014.5mb 63f
3:18 5 6 mph 1014.5mb 63f
3:12 3 6 mph 1014.6mb 63f
3:06 3 6 mph 1014.5mb 63f
3:00 3 6 mph 1014.5mb 63f
2:36 5 7 mph 1014.6mb 63f
2:30 5 7 mph 1014.6mb 63f
2:24 6 8 mph 1014.7mb 63f
2:18 6 8 mph 1014.7mb 63f
2:12 6 8 mph 1014.7mb 63f
2:06 6 8 mph 1014.7mb 63f
2:00 6 7 mph 1014.7mb 64f
1:36 3 3 mph 1014.5mb 63f
1:30 3 3 mph 1014.4mb 63f
1:24 2 3 mph 1014.4mb 64f
1:18 2 3 mph 1014.5mb 64f
1:12 2 3 mph 1014.4mb 64f
1:06 1 3 mph 1014.4mb 64f
1:00 2 3 mph 1014.5mb 64f
12:36 3 5 mph 1014.7mb 64f
12:30 2 5 mph 1014.7mb 64f
12:24 2 3 mph 1014.7mb 64f
12:18 3 5 mph 1014.6mb 64f
12:12 2 5 mph 1014.7mb 64f
12:06 2 3 mph 1014.6mb 64f
12:00 2 5 mph 1014.7mb 64f
Qua 08/16 11:36 2 5 mph 1014.8mb 64f
11:30 2 3 mph 1014.8mb 64f
11:24 2 3 mph 1014.8mb 64f
11:18 3 5 mph 1014.7mb 64f
11:12 3 5 mph 1014.8mb 64f
11:06 3 5 mph 1014.7mb 65f
11:00 3 5 mph 1014.8mb 65f
10:36 3 5 mph 1014.7mb 65f
10:30 3 5 mph 1014.7mb 65f
10:24 3 5 mph 1014.6mb 65f
10:18 5 6 mph 1014.6mb 65f
10:12 5 6 mph 1014.7mb 65f
10:06 2 5 mph 1014.7mb 66f
10:00  -  1 mph 1014.7mb 65f
9:54 1 3 mph 1014.6mb 65f
9:48 2 3 mph 1014.7mb 65f
9:36 3 5 mph 1014.6mb 66f
9:30 3 3 mph 1014.6mb 67f
9:24 2 2 mph 1014.5mb 67f
9:18 2 3 mph 1014.5mb 67f
9:12 2 3 mph 1014.5mb 67f
9:06 3 6 mph 1014.4mb 67f
9:00 3 7 mph 1014.4mb 67f
8:54 3 6 mph 1014.3mb 67f
8:48 3 6 mph 1014.3mb 67f
8:36 5 7 mph 1014.2mb 67f
8:30 5 7 mph 1014.2mb 67f
8:24 5 8 mph 1014.1mb 67f
8:18 5 8 mph 1014.1mb 67f
8:12 2 6 mph 1014.1mb 67f
8:06 2 6 mph 1014.1mb 67f
8:00 3 5 mph 1014.1mb 67f
7:54 2 5 mph 1014mb 67f
7:48 2 5 mph 1014mb 67f
7:36 3 6 mph 1013.9mb 67f
7:30 6 8 mph 1013.8mb 67f
7:24 7 8 mph 1013.8mb 67f
7:18 7 10 mph 1013.8mb 67f
7:12 7 13 mph 1013.7mb 67f
7:06 7 11 mph 1013.7mb 67f
7:00 7 13 mph 1013.7mb 68f
6:54 7 11 mph 1013.7mb 67f
6:48 8 13 mph 1013.7mb 68f
6:36 8 14 mph 1013.8mb 68f
6:30 9 16 mph 1013.8mb 68f
6:24 9 16 mph 1013.8mb 68f
6:18 10 14 mph 1013.9mb 68f
6:12 10 14 mph 1013.9mb 68f
6:06 9 14 mph 1013.9mb 68f
6:00 9 14 mph 1013.9mb 68f
5:54 11 14 mph 1014mb 68f
5:48 10 13 mph 1014mb 68f
5:36 10 15 mph 1014.1mb 68f
5:30 11 16 mph 1014.1mb 68f
5:24 11 15 mph 1014.1mb 68f
5:18 11 15 mph 1014.2mb 68f
5:12 13 15 mph 1014.2mb 67f
5:06 10 14 mph 1014.2mb 68f
5:00 11 15 mph 1014.2mb 68f
4:54 11 16 mph 1014.2mb 67f
4:48 11 14 mph 1014.2mb 67f
4:36 10 14 mph 1014.2mb 68f
4:30 13 15 mph 1014.3mb 67f
4:24 11 13 mph 1014.4mb 67f
4:18 11 14 mph 1014.3mb 68f
4:12 10 14 mph 1014.3mb 68f
4:06 10 13 mph 1014.3mb 69f
4:00 10 13 mph 1014.4mb 68f
3:54 9 11 mph 1014.5mb 68f
3:48 9 13 mph 1014.5mb 68f
3:36 11 14 mph 1014.7mb 67f
3:30 11 14 mph 1014.7mb 67f
3:24 11 14 mph 1014.7mb 67f
3:18 11 14 mph 1014.7mb 67f
3:12 10 11 mph 1014.7mb 67f
3:06 11 14 mph 1014.9mb 66f
3:00 11 13 mph 1015mb 66f
2:54 11 13 mph 1015mb 66f
2:48 11 13 mph 1015.1mb 66f
2:36 11 13 mph 1015.2mb 65f
2:30 11 13 mph 1015.2mb 66f
2:24 11 13 mph 1015.2mb 65f
2:18 11 14 mph 1015.3mb 65f
2:12 10 13 mph 1015.3mb 65f
2:06 10 13 mph 1015.4mb 65f
2:00 9 11 mph 1015.4mb 65f
1:54 9 10 mph 1015.4mb 65f
1:48 9 10 mph 1015.5mb 65f
1:36 8 10 mph 1015.5mb 65f
1:30 8 9 mph 1015.6mb 65f
1:24 9 10 mph 1015.7mb 65f
1:18 9 10 mph 1015.8mb 65f
1:12 9 10 mph 1015.8mb 65f
1:06 8 9 mph 1015.9mb 65f
1:00 8 9 mph 1015.9mb 65f
12:54 7 8 mph 1015.9mb 65f
12:48 8 8 mph 1015.9mb 65f
12:36 8 8 mph 1015.9mb 65f
12:30 7 8 mph 1015.9mb 65f
12:24 7 8 mph 1015.9mb 65f
12:18 8 8 mph 1016mb 65f
12:12 7 7 mph 1016mb 65f
12:06 6 7 mph 1016mb 65f
12:00 6 7 mph 1016mb 65f
11:54 6 7 mph 1016mb 65f
11:48 7 8 mph 1016mb 65f
11:36 7 8 mph 1015.9mb 64f
11:30 7 8 mph 1015.9mb 65f
11:24 7 8 mph 1015.8mb 64f
11:18 7 8 mph 1015.8mb 64f
11:12 7 7 mph 1015.8mb 64f
11:06 7 7 mph 1015.8mb 64f
11:00 7 8 mph 1015.8mb 64f
10:54 7 8 mph 1015.7mb 64f
10:48 7 8 mph 1015.7mb 64f
10:36 7 8 mph 1015.6mb 64f
10:30 7 8 mph 1015.6mb 64f
10:24 7 8 mph 1015.6mb 64f
10:18 7 8 mph 1015.5mb 64f
10:12 7 8 mph 1015.5mb 64f
10:06 7 7 mph 1015.4mb 64f
10:00 6 7 mph 1015.5mb 64f
9:54 6 6 mph 1015.5mb 64f
9:48 5 5 mph 1015.5mb 64f
9:36 3 5 mph 1015.5mb 64f
9:30 3 5 mph 1015.5mb 64f
9:24 2 2 mph 1015.4mb 64f
9:18 2 3 mph 1015.4mb 64f
9:12 2 3 mph 1015.4mb 64f
9:06 1 2 mph 1015.5mb 64f
9:00 1 2 mph 1015.5mb 64f
8:54  -  2 mph 1015.5mb 64f
8:48  -  2 mph 1015.5mb 64f
8:36 1 2 mph 1015.4mb 64f
8:30 1 2 mph 1015.4mb 64f
8:24 1 2 mph 1015.4mb 64f
8:18  -  2 mph 1015.4mb 64f
8:12  -  1 mph 1015.4mb 64f
8:06  -  2 mph 1015.4mb 63f
8:00 1 2 mph 1015.4mb 63f
7:54 1 2 mph 1015.3mb 63f
7:48  -  3 mph 1015.2mb 63f
7:36 1 2 mph 1015.1mb 63f
7:30 2 3 mph 1015mb 63f
7:24 3 5 mph 1014.9mb 63f
7:18 2 5 mph 1014.9mb 63f
7:12 3 3 mph 1014.8mb 62f
7:06 3 5 mph 1014.7mb 62f
7:00 2 3 mph 1014.7mb 62f
6:54 3 5 mph 1014.7mb 62f
6:48 2 3 mph 1014.7mb 62f
6:36 2 5 mph 1014.7mb 62f
6:30 3 5 mph 1014.7mb 62f
6:24 2 5 mph 1014.5mb 62f
6:18 3 6 mph 1014.5mb 62f
6:12 3 6 mph 1014.4mb 62f
6:06 5 6 mph 1014.3mb 62f
6:00 5 6 mph 1014.3mb 62f
5:54 5 6 mph 1014.3mb 61f
5:48 5 6 mph 1014.3mb 61f
5:36 5 6 mph 1014.2mb 62f
5:30 5 7 mph 1014.1mb 62f
5:24 5 8 mph 1014mb 62f
5:18 6 8 mph 1014mb 61f
5:12 6 7 mph 1013.9mb 62f
5:06 6 7 mph 1013.8mb 62f
5:00 6 8 mph 1013.7mb 62f
4:54 6 8 mph 1013.7mb 62f
4:48 6 7 mph 1013.7mb 62f
4:36 6 8 mph 1013.7mb 62f
4:30 5 6 mph 1013.6mb 62f
4:24 6 7 mph 1013.5mb 62f
4:18 5 7 mph 1013.5mb 62f
4:12 6 7 mph 1013.6mb 62f
4:06 6 8 mph 1013.5mb 62f
4:00 5 7 mph 1013.5mb 62f
3:54 5 7 mph 1013.5mb 62f
3:48 6 8 mph 1013.4mb 62f
3:36 6 8 mph 1013.5mb 62f
3:30 6 8 mph 1013.4mb 62f
3:24 6 7 mph 1013.4mb 62f
3:18 6 7 mph 1013.5mb 62f
3:12 5 7 mph 1013.5mb 62f
3:06 6 7 mph 1013.4mb 62f
3:00 6 9 mph 1013.4mb 62f
2:54 7 9 mph 1013.3mb 62f
2:48 6 9 mph 1013.3mb 62f
2:36 5 6 mph 1013.3mb 62f
2:30 5 6 mph 1013.2mb 62f
2:24 5 6 mph 1013.2mb 62f
2:18 5 6 mph 1013.2mb 62f
2:12 6 7 mph 1013.2mb 62f
2:06 5 6 mph 1013.2mb 62f
2:00 5 6 mph 1013.2mb 62f
1:54 5 6 mph 1013.2mb 62f
1:48 5 7 mph 1013.2mb 63f
1:36 6 7 mph 1013.2mb 62f
1:30 5 7 mph 1013.2mb 63f
1:24 6 7 mph 1013.2mb 63f
1:18 6 8 mph 1013.3mb 63f
1:12 6 8 mph 1013.2mb 63f
1:06 6 7 mph 1013.2mb 63f
1:00 6 7 mph 1013.2mb 63f
12:54 5 6 mph 1013.2mb 63f
12:48 5 6 mph 1013.2mb 64f
12:36 1 2 mph 1013.1mb 63f
12:30 1 2 mph 1013.1mb 63f
12:24 2 3 mph 1013.1mb 63f
12:18 2 3 mph 1013.2mb 63f
12:12 3 5 mph 1013.1mb 63f
12:06 3 5 mph 1013.1mb 63f
12:00 3 5 mph 1013.1mb 63f
Ter 08/15 11:54 3 3 mph 1013.1mb 63f
11:48 2 3 mph 1013.1mb 63f
11:36 3 6 mph 1013.2mb 63f
11:30 5 6 mph 1013.2mb 63f
11:24 3 6 mph 1013.2mb 64f
11:18 5 6 mph 1013.2mb 64f
11:12 5 6 mph 1013.2mb 64f
11:06 5 6 mph 1013.2mb 64f
11:00 3 6 mph 1013.3mb 64f
10:54 5 6 mph 1013.2mb 64f
10:48 3 5 mph 1013.2mb 64f
10:36 3 5 mph 1013.2mb 64f
10:30 5 6 mph 1013.2mb 64f
10:24 5 6 mph 1013.2mb 64f
10:18 5 6 mph 1013.2mb 64f
10:12 5 6 mph 1013.1mb 64f
10:06 5 6 mph 1013.1mb 64f
10:00 5 7 mph 1013.1mb 64f
9:54 5 6 mph 1013.1mb 64f
9:48 3 6 mph 1012.9mb 64f
9:36 3 6 mph 1012.8mb 65f
9:30 3 6 mph 1012.7mb 65f
9:24 5 8 mph 1012.7mb 65f
9:18 6 8 mph 1012.6mb 65f
9:12 5 8 mph 1012.5mb 65f
9:06 6 8 mph 1012.5mb 65f
9:00 7 9 mph 1012.4mb 65f
8:54 7 9 mph 1012.4mb 65f
8:48 7 9 mph 1012.3mb 65f
8:36 6 8 mph 1012.2mb 66f
8:30 3 6 mph 1012.2mb 66f
8:24  -  2 mph 1012.1mb 65f
8:18 2 3 mph 1012.1mb 66f
8:12 3 5 mph 1012mb 66f
8:06 5 6 mph 1012mb 66f
8:00 5 6 mph 1011.9mb 67f
7:54 2 5 mph 1011.8mb 67f
7:48 2 3 mph 1011.8mb 67f
7:36 3 6 mph 1011.8mb 67f
7:30 5 6 mph 1011.8mb 68f
7:24 5 7 mph 1011.8mb 68f
7:18 6 7 mph 1011.8mb 68f
7:12 6 9 mph 1011.8mb 68f
7:06 7 9 mph 1011.7mb 68f
7:00 6 9 mph 1011.7mb 68f
6:54 7 9 mph 1011.6mb 68f
6:48 6 10 mph 1011.7mb 69f
6:36 8 10 mph 1011.7mb 68f
6:30 9 11 mph 1011.6mb 69f
6:24 8 11 mph 1011.6mb 69f
6:18 9 13 mph 1011.7mb 69f
6:12 9 13 mph 1011.7mb 69f
6:06 9 13 mph 1011.7mb 69f
6:00 9 13 mph 1011.8mb 69f
5:54 9 11 mph 1011.8mb 69f
5:48 9 11 mph 1011.8mb 69f
5:36 9 11 mph 1011.9mb 69f
5:30 9 13 mph 1011.9mb 69f
5:24 8 11 mph 1011.9mb 70f
5:18 9 10 mph 1011.9mb 69f
5:12 9 13 mph 1012mb 68f
5:06 10 13 mph 1012.1mb 68f
5:00 10 14 mph 1012.1mb 68f
4:54 10 13 mph 1012.2mb 68f
4:48 10 13 mph 1012.3mb 68f
4:36 10 13 mph 1012.4mb 67f
4:30 10 13 mph 1012.5mb 68f
4:24 10 13 mph 1012.6mb 67f
4:18 9 11 mph 1012.7mb 67f
4:12 10 13 mph 1012.7mb 66f
4:06 11 13 mph 1012.7mb 66f
4:00 11 13 mph 1012.8mb 65f
3:54 11 13 mph 1012.8mb 66f
3:48 11 13 mph 1012.8mb 66f
3:36 9 10 mph 1012.9mb 65f
3:30 10 10 mph 1013mb 65f
3:24 8 9 mph 1013mb 66f
3:18 9 10 mph 1013.1mb 65f
3:12 8 9 mph 1013.1mb 65f
3:06 8 10 mph 1013.1mb 65f
3:00 8 10 mph 1013.2mb 66f
2:54 9 11 mph 1013.2mb 66f
2:48 10 13 mph 1013.2mb 66f
2:36 10 13 mph 1013.3mb 66f
2:30 11 13 mph 1013.2mb 65f
2:24 13 14 mph 1013.3mb 65f
2:18 9 11 mph 1013.3mb 66f
2:12 9 13 mph 1013.3mb 65f
2:06 10 13 mph 1013.4mb 65f
2:00 11 13 mph 1013.4mb 65f
1:54 10 11 mph 1013.4mb 65f
1:48 10 11 mph 1013.4mb 65f
1:36 10 13 mph 1013.4mb 66f
1:30 10 13 mph 1013.4mb 66f
1:24 11 13 mph 1013.4mb 65f
1:18 10 14 mph 1013.5mb 66f
1:12 8 11 mph 1013.5mb 66f
1:06 9 11 mph 1013.6mb 66f
1:00 10 11 mph 1013.6mb 65f
12:54 10 13 mph 1013.6mb 65f
12:48 10 14 mph 1013.6mb 65f
12:36 11 14 mph 1013.6mb 64f
12:30 10 13 mph 1013.5mb 65f
12:24 10 11 mph 1013.6mb 65f
12:18 10 11 mph 1013.6mb 65f
12:12 10 10 mph 1013.6mb 65f
12:06 9 11 mph 1013.6mb 65f
12:00 8 10 mph 1013.6mb 65f
11:54 9 10 mph 1013.6mb 65f
11:48 10 11 mph 1013.7mb 65f
11:36 10 11 mph 1013.7mb 65f
11:30 11 11 mph 1013.7mb 65f
11:24 10 11 mph 1013.7mb 64f
11:18 10 11 mph 1013.7mb 65f
11:12 10 11 mph 1013.7mb 65f
11:06 10 10 mph 1013.6mb 65f
11:00 10 10 mph 1013.5mb 65f
10:54 9 10 mph 1013.5mb 65f
10:48 9 10 mph 1013.4mb 65f
10:36 8 9 mph 1013.4mb 65f
10:30 8 8 mph 1013.3mb 64f
10:24 8 8 mph 1013.4mb 64f
10:18 7 8 mph 1013.4mb 64f
10:12 8 8 mph 1013.3mb 64f
10:06 8 8 mph 1013.2mb 64f
10:00 8 8 mph 1013.2mb 64f
9:54 8 9 mph 1013.2mb 64f
9:48 8 9 mph 1013.2mb 64f
9:36 8 9 mph 1013.2mb 64f
9:30 8 9 mph 1013.1mb 63f
9:24 8 8 mph 1013.1mb 63f
9:18 8 8 mph 1013.1mb 63f
9:12 6 7 mph 1013.1mb 64f
9:06 6 6 mph 1013.1mb 64f
9:00 5 5 mph 1013.1mb 63f
8:54 5 5 mph 1013.1mb 63f
8:48 3 3 mph 1013.2mb 63f
8:36 2 3 mph 1013.1mb 63f
8:30 3 3 mph 1013.1mb 63f
8:24 2 3 mph 1013mb 63f
8:18 2 2 mph 1012.9mb 63f
8:12 1 2 mph 1012.8mb 63f
8:06 1 2 mph 1012.9mb 63f
8:00 1 2 mph 1012.8mb 63f
7:54  -  1 mph 1012.7mb 63f
7:48  -  1 mph 1012.7mb 63f
7:36  -  1 mph 1012.5mb 62f
7:30  -  1 mph 1012.5mb 62f
7:24  -  1 mph 1012.4mb 62f
7:18  -  1 mph 1012.4mb 62f
7:12 1 2 mph 1012.3mb 62f
7:06 1 2 mph 1012.3mb 62f
7:00  -  1 mph 1012.3mb 62f
6:54 1 2 mph 1012.3mb 62f
6:48 1 1 mph 1012.2mb 62f
6:36 1 2 mph 1012.1mb 62f
6:30 2 3 mph 1012.1mb 62f
6:24 2 3 mph 1012mb 62f
6:18 1 3 mph 1012mb 62f
6:12  -  2 mph 1011.9mb 63f
6:06 2 5 mph 1012mb 63f
6:00 3 5 mph 1012mb 63f
5:54 1 2 mph 1011.9mb 63f
5:48 3 3 mph 1011.8mb 62f
5:36 3 3 mph 1011.8mb 63f
5:30 3 5 mph 1011.8mb 62f
5:24 3 5 mph 1011.8mb 63f
5:18 3 5 mph 1011.8mb 62f
5:12 2 3 mph 1011.8mb 63f
5:06 2 2 mph 1011.7mb 63f
5:00  -  1 mph 1011.7mb 63f
4:54  -  2 mph 1011.6mb 62f
4:48 1 2 mph 1011.6mb 62f
4:36 2 5 mph 1011.6mb 62f
4:30 3 6 mph 1011.6mb 62f
4:24 3 8 mph 1011.6mb 62f
4:18 6 11 mph 1011.6mb 63f
4:12 8 10 mph 1011.6mb 63f
4:06 9 11 mph 1011.5mb 62f
4:00 6 8 mph 1011.5mb 63f
3:54 5 8 mph 1011.5mb 63f
3:48 6 8 mph 1011.5mb 63f
3:36 7 11 mph 1011.5mb 63f
3:30 8 10 mph 1011.4mb 63f
3:24 10 14 mph 1011.5mb 63f
3:18 11 14 mph 1011.5mb 63f
3:12 9 14 mph 1011.5mb 63f
3:06 8 11 mph 1011.5mb 64f
3:00 8 13 mph 1011.5mb 64f
2:54 9 13 mph 1011.5mb 64f
2:48 8 10 mph 1011.5mb 64f
2:36 7 10 mph 1011.4mb 63f
2:30 6 8 mph 1011.4mb 63f
2:24 3 7 mph 1011.4mb 63f
2:18 6 9 mph 1011.5mb 63f
2:12 6 8 mph 1011.4mb 63f
2:06 5 7 mph 1011.5mb 63f
2:00 3 6 mph 1011.5mb 63f
1:54 5 6 mph 1011.5mb 63f
1:48 3 6 mph 1011.5mb 63f
1:36 6 8 mph 1011.5mb 63f
1:30 5 6 mph 1011.4mb 63f
1:24 6 7 mph 1011.3mb 63f
1:18 5 8 mph 1011.4mb 63f
1:12 6 7 mph 1011.4mb 63f
1:06 6 7 mph 1011.4mb 63f
1:00 6 7 mph 1011.3mb 63f
12:54 7 8 mph 1011.4mb 63f
12:48 6 7 mph 1011.4mb 63f
12:36 5 8 mph 1011.4mb 63f
12:30 5 7 mph 1011.3mb 63f
12:24 6 8 mph 1011.3mb 62f
12:18 6 7 mph 1011.2mb 62f
12:12 6 10 mph 1011.3mb 62f
12:06 8 10 mph 1011.3mb 62f
12:00 8 13 mph 1011.4mb 63f
Seg 08/14 11:54 10 14 mph 1011.4mb 62f
11:48 9 11 mph 1011.4mb 62f
11:36 8 13 mph 1011.3mb 62f
11:30 9 13 mph 1011.2mb 62f
11:24 6 11 mph 1011.2mb 62f
11:18 7 11 mph 1011.1mb 62f
11:12 7 11 mph 1011.1mb 62f
11:06 8 14 mph 1011.1mb 62f
11:00 8 11 mph 1011.2mb 62f
10:54 9 13 mph 1011.2mb 62f
10:48 9 13 mph 1011.2mb 62f
10:36 7 10 mph 1011.3mb 62f
10:30 5 10 mph 1011.3mb 62f
10:24 6 9 mph 1011.3mb 62f
10:18 7 9 mph 1011.4mb 62f
10:12 7 9 mph 1011.4mb 62f
10:06 7 10 mph 1011.3mb 62f
10:00 6 10 mph 1011.3mb 62f
9:54 6 8 mph 1011.4mb 62f
9:48 7 11 mph 1011.3mb 63f
9:36 6 10 mph 1011.3mb 63f
9:30 7 9 mph 1011.2mb 63f
9:24 6 8 mph 1011.2mb 63f
9:18 7 9 mph 1011.1mb 62f
9:12 6 9 mph 1011mb 63f
9:06 6 8 mph 1010.9mb 62f
9:00 6 8 mph 1010.9mb 62f
8:54 6 8 mph 1010.9mb 63f
8:48 7 8 mph 1010.9mb 62f
8:36 6 6 mph 1010.8mb 63f
8:30 3 6 mph 1010.8mb 63f
8:24 3 6 mph 1010.7mb 63f
8:18 3 6 mph 1010.7mb 63f
8:12 3 6 mph 1010.7mb 63f
8:06 3 5 mph 1010.7mb 63f
8:00 2 3 mph 1010.7mb 63f
7:54 2 3 mph 1010.7mb 64f
7:48 2 2 mph 1010.7mb 63f
7:36 1 2 mph 1010.6mb 63f
7:30  -  3 mph 1010.7mb 63f
7:24 3 5 mph 1010.8mb 63f
7:18 5 5 mph 1010.8mb 63f
7:12 5 6 mph 1010.8mb 63f
7:06 6 6 mph 1010.8mb 63f
7:00 6 6 mph 1010.8mb 63f
6:54 6 7 mph 1010.9mb 62f
6:48 7 7 mph 1010.9mb 63f
6:36 7 8 mph 1010.9mb 63f
6:30 7 8 mph 1011mb 62f
6:24 8 10 mph 1011mb 62f
6:18 9 11 mph 1011mb 62f
6:12 9 11 mph 1011.1mb 62f
6:06 11 13 mph 1011.2mb 62f
6:00 10 13 mph 1011.1mb 63f
5:54 10 14 mph 1011.2mb 62f
5:48 10 13 mph 1011.2mb 62f
4:54 11 15 mph 1011.5mb 64f
4:48 11 15 mph 1011.5mb 64f
4:36 13 15 mph 1011.6mb 64f
4:30 11 15 mph 1011.6mb 65f
4:24 10 16 mph 1011.6mb 66f
4:18 10 14 mph 1011.7mb 66f
4:12 10 14 mph 1011.7mb 65f
4:06 8 14 mph 1011.7mb 67f
4:00 10 14 mph 1011.9mb 66f
3:54 9 14 mph 1011.9mb 66f
3:48 10 14 mph 1012mb 66f
3:36 10 14 mph 1012.2mb 65f
3:30 9 14 mph 1012.3mb 65f
3:24 10 14 mph 1012.4mb 66f
3:18 9 15 mph 1012.4mb 66f
3:12 9 15 mph 1012.5mb 66f
3:06 10 15 mph 1012.5mb 66f
3:00 10 14 mph 1012.6mb 65f
2:54 9 13 mph 1012.6mb 66f
2:48 11 16 mph 1012.7mb 65f
2:36 10 14 mph 1012.8mb 65f
2:30 11 14 mph 1012.8mb 66f
2:24 9 13 mph 1012.8mb 66f
2:18 9 14 mph 1012.9mb 66f
2:12 9 13 mph 1012.9mb 65f
2:06 10 13 mph 1013mb 65f
2:00 10 13 mph 1013mb 65f
1:54 10 14 mph 1013mb 65f
1:48 10 13 mph 1013mb 65f
1:36 9 11 mph 1013.1mb 65f
1:30 8 11 mph 1013.1mb 65f
1:24 8 11 mph 1013.2mb 65f
1:18 10 11 mph 1013.2mb 65f
1:12 9 11 mph 1013.3mb 64f
1:06 9 11 mph 1013.4mb 64f
1:00 9 11 mph 1013.4mb 64f
12:54 11 13 mph 1013.4mb 64f
12:48 10 13 mph 1013.4mb 64f
12:36 8 11 mph 1013.5mb 64f
12:30 9 11 mph 1013.5mb 64f
12:24 8 10 mph 1013.5mb 64f
12:18 7 9 mph 1013.6mb 64f
12:12 7 9 mph 1013.7mb 64f
12:06 7 9 mph 1013.7mb 64f
12:00 8 10 mph 1013.7mb 64f
11:54 7 10 mph 1013.9mb 63f
11:48 9 10 mph 1013.9mb 63f
11:36 9 10 mph 1013.9mb 63f
11:30 8 9 mph 1013.8mb 63f
11:24 7 8 mph 1013.8mb 64f
11:18 7 7 mph 1013.8mb 64f
11:12 6 6 mph 1013.9mb 64f
11:06 5 6 mph 1013.8mb 64f
11:00 5 6 mph 1013.8mb 63f
10:54 3 5 mph 1013.9mb 64f
10:48 2 3 mph 1013.8mb 64f
10:36 2 3 mph 1013.9mb 64f
10:30 1 2 mph 1013.8mb 64f
10:24 1 3 mph 1013.8mb 64f
10:18 2 2 mph 1013.8mb 64f
10:12  -  2 mph 1013.8mb 64f
10:06  -  2 mph 1013.8mb 63f
10:00  -  2 mph 1013.7mb 63f
9:54  -  1 mph 1013.8mb 63f
9:48 1 2 mph 1013.9mb 63f
9:36 2 2 mph 1013.8mb 63f
9:30  -  2 mph 1013.7mb 63f
9:24 1 2 mph 1013.7mb 63f
9:18  -  2 mph 1013.7mb 63f
9:12 1 2 mph 1013.8mb 63f
9:06  -  2 mph 1013.8mb 63f
9:00  -  1 mph 1013.8mb 63f
8:54  -  2 mph 1013.7mb 63f
8:48  -  2 mph 1013.6mb 62f
8:36 2 3 mph 1013.5mb 62f
8:30 2 3 mph 1013.6mb 62f
8:24 2 5 mph 1013.6mb 62f
8:18 3 6 mph 1013.6mb 61f
8:12 3 6 mph 1013.5mb 61f
8:06 5 6 mph 1013.5mb 61f
8:00 3 6 mph 1013.4mb 61f
7:54 5 7 mph 1013.5mb 61f
7:48 7 7 mph 1013.5mb 61f
7:36 6 7 mph 1013.2mb 61f
7:30 6 8 mph 1013.2mb 61f
7:24 6 7 mph 1013.1mb 61f
7:18 6 8 mph 1013mb 61f
7:12 5 7 mph 1012.9mb 61f
7:06 2 3 mph 1012.9mb 61f
7:00 2 5 mph 1012.8mb 61f
6:54 3 5 mph 1012.9mb 61f
6:48 3 5 mph 1012.9mb 61f
6:36 3 6 mph 1012.9mb 61f
6:30 3 5 mph 1012.9mb 61f
6:24 3 6 mph 1012.8mb 61f
6:18 5 6 mph 1012.7mb 60f
6:12 5 6 mph 1012.7mb 61f
6:06 3 6 mph 1012.6mb 61f
6:00 6 7 mph 1012.6mb 61f
5:54 5 8 mph 1012.5mb 61f
5:48 3 6 mph 1012.5mb 61f
5:36 6 6 mph 1012.5mb 60f
5:30 3 7 mph 1012.5mb 60f
5:24 3 6 mph 1012.5mb 61f
5:18 5 7 mph 1012.5mb 60f